This is the latest recevied weather packets stored in our database for station/object DB0RES-5. If no packets are shown the sender has not sent any weather packets the latest 10 day(s).
| Time | Temp. | Humidity | Pressure | Rain* | Wind** | Luminosity | Snow |
|---|---|---|---|---|---|---|---|
| 1777565115 | 19.44° C | 28% | 1027.5 hPa | 0 mm | - | - | - |
| 1777564573 | 19.44° C | 28% | 1027.6 hPa | 0 mm | - | - | - |
| 1777563367 | 20° C | 27% | 1027.7 hPa | 0 mm | - | - | - |
| 1777562765 | 20° C | 27% | 1027.7 hPa | 0 mm | - | - | - |
| 1777561560 | 20° C | 28% | 1027.9 hPa | 0 mm | - | - | - |
| 1777560957 | 19.44° C | 27% | 1027.9 hPa | 0 mm | - | - | - |
| 1777560355 | 19.44° C | 27% | 1028 hPa | 0 mm | - | - | - |
| 1777559149 | 19.44° C | 26% | 1028.2 hPa | 0 mm | - | - | - |
| 1777557944 | 19.44° C | 27% | 1028.4 hPa | 0 mm | - | - | - |
| 1777557342 | 19.44° C | 26% | 1028.4 hPa | 0 mm | - | - | - |
| 1777556136 | 18.89° C | 26% | 1028.6 hPa | 0 mm | - | - | - |
| 1777555534 | 18.89° C | 26% | 1028.8 hPa | 0 mm | - | - | - |
| 1777554931 | 18.33° C | 28% | 1028.8 hPa | 0 mm | - | - | - |
| 1777554329 | 18.89° C | 27% | 1028.8 hPa | 0 mm | - | - | - |
| 1777553726 | 18.33° C | 27% | 1028.9 hPa | 0 mm | - | - | - |
| 1777552521 | 18.89° C | 26% | 1029.1 hPa | 0 mm | - | - | - |
| 1777551316 | 18.33° C | 27% | 1029.3 hPa | 0 mm | - | - | - |
| 1777550773 | 17.78° C | 26% | 1029.2 hPa | 0 mm | - | - | - |
| 1777550171 | 17.22° C | 27% | 1029.4 hPa | 0 mm | - | - | - |
| 1777548966 | 17.22° C | 29% | 1029.5 hPa | 0 mm | - | - | - |
| 1777548363 | 16.67° C | 29% | 1029.7 hPa | 0 mm | - | - | - |
| 1777547761 | 16.67° C | 30% | 1029.7 hPa | 0 mm | - | - | - |
| 1777547158 | 16.67° C | 30% | 1029.9 hPa | 0 mm | - | - | - |
| 1777545953 | 16.11° C | 30% | 1029.9 hPa | 0 mm | - | - | - |
| 1777545350 | 16.11° C | 31% | 1030 hPa | 0 mm | - | - | - |
* Rain latest hour (hover to see other rain measurements)
** Current wind speed in m/s (hover to see current wind gust speed)